Hourly Data Report for October 05, 2017

All times are specified in Local Standard Time (LST). Add 1 hour to adjust for Daylight Saving Time where and when it is observed.

BANCROFT AUTO
ONTARIO

45°04'17.000" N
77°52'44.000" W
330.70 m
616I001
71294
WRK

Download Data

Hourly Data (October 2017)
Hourly Data Report for October 5, 2017
Temp Definition
°C
Dew Point Temp Definition
°C
Rel Hum Definition
%
Wind Dir Definition
10's deg

Wind Spd Definition
km/h
Visibility Definition
km
Stn Press Definition
kPa
Hmdx Definition


Wind Chill Definition


Weather Definition


TIME
00:00 9.4 9.2 99 33 5   98.01     LegendNANA
01:00 7.3 7.3 100 8 1   98.04     LegendNANA
02:00 6.7 6.7 100 7 3   97.99     LegendNANA
03:00 4.9 4.9 100   0   97.99     LegendNANA
04:00 4.6 4.6 100   0   98.02     LegendNANA
05:00 3.7 3.7 100   0   98.02     LegendNANA
06:00 2.9 2.9 100   0   98.04     LegendNANA
07:00 2.7 2.7 100   0   98.03     LegendNANA
08:00 8.7 8.7 100   0   98.00     LegendNANA
09:00 11.7 10.0 90 20 7   97.97     LegendNANA
10:00 14.8 9.0 68 23 10   97.91     LegendNANA
11:00 15.3 9.1 66 26 6   97.86     LegendNANA
12:00 16.7 8.8 59 25 7   97.79     LegendNANA
13:00 17.6 8.2 54 23 12   97.73     LegendNANA
14:00 16.5 7.1 53 27 8   97.70     LegendNANA
15:00 16.8 6.8 52 27 8   97.69     LegendNANA
16:00 16.4 7.5 56 27 6   97.68     LegendNANA
17:00 14.9 8.2 64 26 5   97.66     LegendNANA
18:00 13.6 7.9 68 25 4   97.69     LegendNANA
19:00 12.3 8.1 76 26 3   97.78     LegendNANA
20:00 11.8 7.8 76 27 5   97.83     LegendNANA
21:00 11.2 7.5 78 25 4   97.82     LegendNANA
22:00 10.0 7.3 84 23 3   97.81     LegendNANA
23:00 7.1 6.8 98   0   97.82     LegendNANA

Notes on Data Quality.

Legend

  • E = Estimated
  • M = Missing
  • NA = Not Available
  • ‡ = Partner data that is not subject to review by the National Climate Archives
Date modified: